map of MSQ home
MSQ - Airport
Location
City:  Minsk, Minskaya (Minsk), Belarus
Name:Minsk National Airport
Old (Alt.):Minsk-2
ICAO:UMMS
IATA:MSQ

Details
Type:Airport (Aerodrome, Airfield)
Use:Public/Civil, International (customs port of entry)
Latitude:5352'57"N (53.882469)
Longitude:2801'51"E (28.030731)
Datum:WGS 1984
Elevation:670 ft (204 m)
Variation:7.89E (WMM2015 magnetic declination)
0.13 annual change
Runways:1
Longest:11946 × 197 ft (3641 × 60 m), paved

Time
Time Zone:UTC+2 (DST+3)

Weather
METAR:UMMS 170230Z 00000MPS 7000 BKN009 OVC049 M05/M05 Q1029 R31/810349 NOSIG
TAF:UMMS 162305Z 1700/1724 VRB02MPS 1200 BCFG BR BKN003
TEMPO 1700/1724 0300 -SN FZFG VV002

Related Locations
Nearby:
Farthest:CHT: 11130 mi / 17912 km
Waitangi [Tuuta], CIT, NZ

Find:

   beyond  
but within

Other Information
Maps:
NOTAMs:
Links:
Sources:

  
flag of Belarus
flag of Minskaya (Minsk)
  

Sectional Chart

Flight Planning
at skyvector.com

Satellite Image

Google Maps Satellite view

 

Copyright © 2004-2017 Karl L. Swartz. All rights reserved.
The Great Circle Mapper name and logo are trademarks of the Great Circle Mapper.
All other trademarks mentioned herein belong to their respective owners.
Please see credits for attibutions and further copyright information.

  Follow gcmap on Facebook Follow gcmap on Twitter Follow gcmap on Google+ GCmap on LinkedIn

hCard Microformat

Geo Microformat